Weather History for Greenwood, SC

Change the Weather History Date:

Wednesday, November 23, 2011

  Actual Average (KAND) Record (KAND)
Temperature  
Mean Temperature 57 °F -  
Max Temperature 70 °F 60 °F 75 °F (1973)
Min Temperature 42 °F 39 °F 19 °F (1976)
Degree Days  
Heating Degree Days 8    
Growing Degree Days 7 (Base 50)    
Moisture  
Dew Point 50 °F    
Average Humidity 71    
Maximum Humidity 94    
Minimum Humidity 39    
Precipitation  
Precipitation 0.06 in - - ()
Sea Level Pressure  
Sea Level Pressure 29.98 in    
Wind  
Wind Speed 11 mph (West)    
Max Wind Speed 15 mph    
Max Gust Speed 24 mph    
Visibility 10 miles    
Events Rain    
Averages and records for this station are not official NWS values.
T = Trace of Precipitation, MM = Missing Value Source: NWS Daily Summary

Daily Weather History Graph

Daily Weather History Graph

Search for Another Location

Airport:

Trip Planner

Search our weather history database for the weather conditions in past years. The results will help you decide how hot, cold, wet, or windy it might be!

Date:

Astronomy

Nov. 23, 2011 Rise Set
Actual Time 7:08 AM EST 5:20 PM EST
Civil Twilight 6:41 AM EST 5:47 PM EST
Nautical Twilight 6:11 AM EST 6:18 PM EST
Astronomical Twilight 5:41 AM EST 6:48 PM EST
Moon 5:13 AM EST (11/23) 4:00 PM EST (11/23)
Length of Visible Light 11h 05m
Length of Day
10h 11m
Waning Crescent, 4% of the Moon is Illuminated
Nov 23
Waning Crescent
Nov 25
New
Dec 2
First Quarter
Dec 10
Full
Dec 17
Last Quarter

Hourly Weather History & Observations

Time (EST) Temp. Dew Point Humidity Pressure Visibility Wind Dir Wind Speed Gust Speed Precip Events Conditions
12:12 AM 66.2 °F 64.4 °F 94% 29.92 in 8.0 mi SW 13.8 mph - 0.03 in Rain Light Rain
12:56 AM 66.9 °F 64.0 °F 90% 29.91 in 10.0 mi WSW 12.7 mph 23.0 mph 0.06 in Rain Light Rain
1:56 AM 64.9 °F 63.0 °F 93% 29.90 in 10.0 mi WSW 13.8 mph - 0.00 in   Scattered Clouds
2:56 AM 64.0 °F 61.0 °F 90% 29.89 in 10.0 mi WSW 9.2 mph 19.6 mph N/A   Scattered Clouds
3:56 AM 63.0 °F 60.1 °F 90% 29.89 in 10.0 mi WSW 11.5 mph 17.3 mph N/A   Partly Cloudy
4:56 AM 63.0 °F 59.0 °F 87% 29.88 in 10.0 mi WSW 9.2 mph - N/A   Clear
5:56 AM 62.1 °F 59.0 °F 90% 29.89 in 10.0 mi WSW 12.7 mph - N/A   Clear
6:56 AM 61.0 °F 57.9 °F 90% 29.90 in 10.0 mi WSW 11.5 mph - N/A   Clear
7:56 AM 61.0 °F 57.0 °F 87% 29.91 in 10.0 mi WSW 10.4 mph - N/A   Clear
8:56 AM 63.0 °F 57.0 °F 81% 29.93 in 10.0 mi WSW 13.8 mph 21.9 mph N/A   Clear
9:56 AM 64.9 °F 55.0 °F 70% 29.94 in 10.0 mi WSW 10.4 mph 19.6 mph N/A   Clear
10:56 AM 66.9 °F 48.9 °F 52% 29.94 in 10.0 mi WNW 11.5 mph 23.0 mph N/A   Clear
11:56 AM 68.0 °F 45.0 °F 43% 29.95 in 10.0 mi NW 10.4 mph 20.7 mph N/A   Scattered Clouds
12:56 PM 69.1 °F 46.0 °F 44% 29.95 in 10.0 mi WNW 6.9 mph - N/A   Partly Cloudy
1:56 PM 70.0 °F 44.1 °F 39% 29.95 in 10.0 mi North 15.0 mph 24.2 mph N/A   Scattered Clouds
3:56 PM 64.0 °F 41.0 °F 43% 30.01 in 10.0 mi North 15.0 mph 20.7 mph N/A   Clear
4:56 PM 60.1 °F 39.0 °F 46% 30.05 in 10.0 mi North 11.5 mph 19.6 mph N/A   Clear
5:56 PM 57.0 °F 37.9 °F 49% 30.09 in 10.0 mi North 6.9 mph 17.3 mph N/A   Clear
8:56 PM 51.1 °F 37.0 °F 59% 30.15 in 10.0 mi North 3.5 mph - N/A   Clear
9:56 PM 48.9 °F 37.0 °F 64% 30.18 in 10.0 mi Calm Calm - N/A   Clear
10:56 PM 44.1 °F 37.0 °F 76% 30.19 in 10.0 mi Calm Calm - N/A   Clear
11:56 PM 42.1 °F 37.0 °F 82% 30.22 in 10.0 mi Calm Calm - N/A   Clear